User: anonymous   Login
Location: Unspecified
(0.0000°N, 0.0000°E)
Time: 05:32:11
(UTC+01:00)
Language:

Delta 168 - Orbit

View from above orbital plane
View from above orbital plane
View from above satellite
View from above satellite

Ground track
Ground track

The orbit data is extracted from the following two-line orbital elements,

1 14051U 83041B   14326.15890429  .00006040  00000-0  59018-3 0  6556
2 14051 025.3330 332.8716 1122233 043.8813 018.0758 13.02800823455673
Epoch (UTC): 22 November 2014 03:48:49
Eccentricity: 0.1122233
inclination: 25.3330°
perigee height: 395 km
apogee height: 2107 km
right ascension of ascending node: 332.8716°
argument of perigee: 43.8813°
revolutions per day: 13.02800823
mean anomaly at epoch: 18.0758°
orbit number at epoch: 45567

The dashed part of the orbit path shows where the satellite is in the earth's shadow,  

DLR